Content
SEND FEEDBACK

Daily
Averages
Monthly
Summary
United States of America

MORRISVILLE, NORTH CAROLINA


Home > North America > United States > North Carolina
Elevation: 387 feet     Latitude: 35 52N     Longitude: 078 47W

WEATHER
 
SELECT A DAY
Number of Records: 192,801;   Date Range: 1/1/95 - 7/20/14
 
SHARE

PRINT THIS DATA

[ ← Previous Day ]
WEATHER ALMANAC - JANUARY 23, 2013
[ Next Day → ]
[ °C ]   °F
Weather ElementAverageHighLow
Temperature29.9 °F41 °F (3:51 pm)19 °F (5:51 am)
Dewpoint9.3 °F15.1 °F (11:51 pm)3 °F (1:51 am)
Humidity43.8 %68 % (7:51 am)27 % (12:51 pm)
Barometer30.26 in30.39 in (9:51 am)30.07 in (11:51 pm)
Wind Speed4.4 mph12.7 mph (3:51 pm)
Wind Gust18.4 mph (3:51 pm)
Weather ElementAverage
Visibility10 mi
Wind DirectionESE (113.5 °)

Weather ElementTotal
Precipitation---
Heating Degree Days35 (Base 65)
Averaged from 23 records on January 23, 2013
WEATHER CONDITIONS BREAKOUT
WIND DIRECTION BREAKOUT
WEATHER BY HOUR - JANUARY 23, 2013
[ °C ]   °F
Local TimeTemperatureDewpointHumidityBarometerVisibilityWind DirectionWind SpeedGust SpeedPrecipitationEventsConditions
1:51 AM23.0 °F3.0 °F42 %30.30 in10.0 miCalmPartly Cloudy
2:51 AM21.9 °F3.9 °F46 %30.32 in10.0 miCalmScattered Clouds
3:51 AM21.0 °F6.1 °F53 %30.32 in10.0 miCalmClear
4:51 AM19.9 °F8.1 °F60 %30.33 in10.0 miCalmClear
5:51 AM19.0 °F8.1 °F62 %30.34 in10.0 miCalmPartly Cloudy
6:51 AM19.0 °F9.0 °F65 %30.35 in10.0 miCalmClear
7:51 AM19.0 °F10.0 °F68 %30.36 in10.0 miCalmPartly Cloudy
8:51 AM25.0 °F10.0 °F53 %30.37 in10.0 miCalmPartly Cloudy
9:51 AM28.0 °F3.0 °F34 %30.39 in10.0 miCalmPartly Cloudy
10:51 AM32.0 °F3.0 °F29 %30.38 in10.0 miVariable4.6 mphPartly Cloudy
11:51 AM33.1 °F3.0 °F28 %30.34 in10.0 miWest (270°)5.8 mphScattered Clouds
12:51 PM36.0 °F5.0 °F27 %30.29 in10.0 miVariable4.6 mphScattered Clouds
1:51 PM37.9 °F10.0 °F32 %30.25 in10.0 miWSW (240°)10.4 mphMostly Cloudy
2:51 PM37.4 °F10.4 °F33 %30.22 in10.0 miWest (260°)8.1 mphMostly Cloudy
3:51 PM41.0 °F12.9 °F32 %30.22 in10.0 miSW (230°)12.7 mph18.4 mphMostly Cloudy
4:51 PM39.0 °F12.0 °F33 %30.21 in10.0 miWSW (240°)11.5 mphScattered Clouds
5:51 PM33.1 °F12.9 °F43 %30.21 in10.0 miSW (230°)4.6 mphScattered Clouds
6:51 PM34.0 °F12.9 °F42 %30.19 in10.0 miSSW (200°)5.8 mphPartly Cloudy
7:51 PM33.1 °F12.9 °F43 %30.17 in10.0 miSouth (170°)3.5 mphPartly Cloudy
8:51 PM33.1 °F14.0 °F46 %30.16 in10.0 miSouth (180°)6.9 mphPartly Cloudy
9:51 PM33.1 °F14.0 °F46 %30.13 in10.0 miSouth (190°)6.9 mphPartly Cloudy
10:51 PM34.0 °F14.0 °F44 %30.10 in10.0 miSouth (190°)8.1 mphPartly Cloudy
11:51 PM34.0 °F15.1 °F46 %30.07 in10.0 miSSW (210°)8.1 mphPartly Cloudy
Hourly data recorded from KRDU, located miles away from Morrisville, North Carolina







STORIES FROM OUR PARTNERS